TimeCDT,TemperatureF,Dew PointF,Humidity,Sea Level PressureIn,VisibilityMPH,Wind Direction,Wind SpeedMPH,Gust SpeedMPH,PrecipitationIn,Events,Conditions,WindDirDegrees,DateUTC
12:53 AM,78.1,73.9,87,30.01,10.0,Calm,Calm,-,N/A,,Clear,0,2013-08-20 05:53:00
1:53 AM,75.9,73.0,91,30.00,10.0,Calm,Calm,-,N/A,,Clear,0,2013-08-20 06:53:00
2:53 AM,75.9,73.0,91,30.00,10.0,Calm,Calm,-,N/A,,Clear,0,2013-08-20 07:53:00
3:53 AM,75.0,73.0,94,29.99,10.0,Calm,Calm,-,N/A,,Clear,0,2013-08-20 08:53:00
4:53 AM,75.9,73.0,91,29.99,10.0,Calm,Calm,-,N/A,,Clear,0,2013-08-20 09:53:00
5:53 AM,73.9,72.0,93,30.01,8.0,Calm,Calm,-,N/A,,Clear,0,2013-08-20 10:53:00
6:53 AM,75.9,73.0,91,30.01,9.0,Calm,Calm,-,N/A,,Clear,0,2013-08-20 11:53:00
7:53 AM,79.0,73.9,84,30.03,10.0,Calm,Calm,-,N/A,,Clear,0,2013-08-20 12:53:00
8:53 AM,82.0,73.9,76,30.04,10.0,Calm,Calm,-,N/A,,Clear,0,2013-08-20 13:53:00
9:53 AM,86.0,71.1,61,30.06,10.0,SE,6.9,-,N/A,,Clear,130,2013-08-20 14:53:00
10:53 AM,86.0,73.0,65,30.06,10.0,SE,8.1,-,N/A,,Clear,140,2013-08-20 15:53:00
11:53 AM,87.1,75.0,67,30.06,10.0,SE,9.2,-,N/A,,Partly Cloudy,140,2013-08-20 16:53:00
12:53 PM,86.0,75.9,72,30.04,10.0,SSE,8.1,-,N/A,,Partly Cloudy,150,2013-08-20 17:53:00
1:53 PM,87.1,75.0,67,30.04,10.0,SE,12.7,-,N/A,,Scattered Clouds,140,2013-08-20 18:53:00
2:10 PM,87.8,73.4,62,30.03,10.0,SE,10.4,-,N/A,Thunderstorm,Scattered Clouds,130,2013-08-20 19:10:00
2:30 PM,87.8,73.4,62,30.03,10.0,ESE,10.4,-,N/A,,Scattered Clouds,110,2013-08-20 19:30:00
2:43 PM,87.8,75.2,66,30.03,10.0,SE,10.4,-,N/A,Thunderstorm,Scattered Clouds,140,2013-08-20 19:43:00
2:53 PM,87.1,73.9,65,30.03,10.0,ESE,11.5,-,N/A,,Scattered Clouds,120,2013-08-20 19:53:00
3:53 PM,86.0,73.9,67,30.01,10.0,ESE,8.1,-,N/A,,Partly Cloudy,110,2013-08-20 20:53:00
4:53 PM,86.0,75.0,70,30.01,10.0,SSE,5.8,-,N/A,,Clear,160,2013-08-20 21:53:00
5:53 PM,84.9,75.9,74,30.01,10.0,SSE,10.4,-,N/A,,Scattered Clouds,150,2013-08-20 22:53:00
6:53 PM,84.0,75.9,76,30.03,10.0,SE,8.1,-,N/A,,Partly Cloudy,130,2013-08-20 23:53:00
7:53 PM,82.9,75.9,79,30.03,10.0,SE,5.8,-,N/A,,Partly Cloudy,130,2013-08-21 00:53:00
8:53 PM,82.9,75.9,79,30.04,10.0,ESE,5.8,-,N/A,,Partly Cloudy,120,2013-08-21 01:53:00
9:53 PM,82.0,75.9,82,30.05,10.0,SE,5.8,-,N/A,,Clear,140,2013-08-21 02:53:00
10:53 PM,82.9,75.0,77,30.06,10.0,ESE,8.1,-,N/A,,Partly Cloudy,120,2013-08-21 03:53:00
11:53 PM,82.9,75.0,77,30.06,10.0,East,4.6,-,N/A,,Partly Cloudy,90,2013-08-21 04:53:00